Погода в Барабинске

Погода в Барабинске : погода сейчас, прогноз погоды и архив. Всё, что Вы хотите узнать о погоде в Барабинске!

Хотите узнать прогноз погоды в Барабинске? Тогда Вам сюда: Погода в Барабинске

Поиск расширенной информации на нашем сайте:

Другие новости

Новости СМИ2

Главная страница сайта

Новости сайта

02.10.2013

Напоминаем, что на нашем новом сайте вы можете получить высокодетализированные прогнозы погоды по пунктам России, СНГ и мира (включающие важные для авиации метеовеличины, такие как направление и скорость ветра, видимость, явления погоды, количество и форма облачности, нижняя и верхняя граница облачности), а также ознакомиться с разнообразными материалами по авиационной метеорологии и подборкой полезных ссылок на эту тему.

Сайт Метеоцентр.Азия посвящён разработке технологий оптимизации авиаметеорологического обслуживания, включая проектирование и перспективное создание нескольких автоматизированных авиаметеорологических систем:
- система выпуска высокодетальных прогностических карт явлений погоды для нижнего воздушного пространства по России и ближнему зарубежью;
- система верификации прогнозов TAF (выпускаемых синоптиками официальных АМСГ РФ и ближнего зарубежья) и AUTOTAF (выпускаемых сайтом Метеоцентр.Азия) - выявление ошибок, онлайн-сопоставление с фактической погодой METAR, автоматическое внесение коррективов в прогнозы при резком отклонении фактической погоды от прогноза, подсчёт оправдываемости прогнозов по элементам и в целом;
- система обработки, анализа и отображения авиаметеорологической информации для применения провайдерами метеорологической информации.

Рекомендуем: Для клиентов Вешняков Компьютерная скорая помощь в тушино по филям.

Погода в Барабинске - сегодня

Время (UTC), дата Ветер
(°,м/с) 
Видим.   Явления Облачность Т
(°С)
Тd
(°С)
f(%) Тe
(°С)
Pmin
(гПа)
dP
(гПа)
Po
(мм)
O2
(г/м3)
Тmin Tmax R s Состояние
почвы
00 21.02.17 190 (Ю) 7-12{13}  10 км  слаб. ливневой снег  10/10 600 м кучево-дожд. 
[Cb calv]
-5.2 -7 87 -10  1010.4  -3.5  746  307  -13.2    0.0  37  неравномерный
сухой снег
100% 
03 21.02.17 200 (Ю) 7-13{14}  4000 м  слаб. ливневой снег  10/10 300 м кучево-дожд. 
[Cb calv]
-2.5 -4.2 88 -7  1008.1  -2  745  303           
06 21.02.17 220 (ЮЗ) 8-13{13}  4000 м  метель{ливн. осадки}  10/10 600 м кучево-дожд. 
[Cb calv]
-0.7 -2.4 88 -5  1007.6  -0.5  744  301           
09 21.02.17 210 (ЮЗ) 8-12{16}  10 км  позёмок  10/10 600 м кучево-дожд. 
[Cb calv]
-0.5 -2.6 86 -5  1008.1  0.6  745  301           
12 21.02.17 220 (ЮЗ) 9-14{17}  4000 м  метель  10/10 600 м кучево-дожд. 
[Cb calv]
-0.5 -2.3 88 -5  1009.1  746  301    -0.3     
15 21.02.17 220 (ЮЗ) 6-11{14}  10 км  позёмок  10/10 600 м кучево-дожд. 
[Cb calv]
-0.2 -2.3 86 -4  1010.9  1.8  747  301           
18 21.02.17 210 (ЮЗ) 8-12{14}  10 км  позёмок  10/10 600 м кучево-дожд. 
[Cb calv]
-0.9 -3.5 82 -5  1012.1  1.1  748  303           
21 21.02.17 220 (ЮЗ) 7-13{13}  10 км  позёмок  10/10 600 м кучево-дожд. 
[Cb calv]
-1.4 -4 82 -6  1013.1  749  304           
00 22.02.17 210 (ЮЗ) 5-10{13}  10 км  позёмок  10/10 600 м кучево-дожд. 
[Cb calv]
-1.3 -3.4 86 -5  1014.2  1.1  749  304  -1.5      35  неравномерный
сухой снег
100% 
03 22.02.17 210 (ЮЗ) 6-10{12}  10 км  позёмок  10/10 600 м 
[Sc]
-2.6 -4.6 86 -7  1015.9  1.5  750  306  -2.6         
06 22.02.17 220 (ЮЗ) 7-12{14}  10 км  позёмок  10/10 600 м 
[Sc]
-2.8 -5.2 84 -7  1017.5  1.6  752  307           
09 22.02.17 210 (ЮЗ) 6-10{12}  10 км  позёмок  10/10 600 м 
[Sc]
-2.7 -5.7 80 -7  1018.8  1.3  753  307           
12 22.02.17 200 (Ю) 5{13}  20000 м    6/6 600 м 
[Sc]
-3.9 -6.8 80 -8  1020.2  1.3  754  309    -1.3       
15 22.02.17 210 (ЮЗ) 6-11{13}  20000 м  позёмок  ясно 
-4.1 -6.8 81 -8  1021.3  1.1  754  309           
18 22.02.17 210 (ЮЗ) 7-12{12}  20000 м  позёмок  ясно 
-4.7 -7.4 81 -10  1021.9  0.6  755  310           
21 22.02.17 200 (Ю) 5{12}  20000 м    ясно 
-6.2 -8.9 81 -10  1022.8  0.7  755  312           
00 23.02.17 210 (ЮЗ) 5{10}  20000 м    ясно 
-7.3 -10.1 80 -12  1024.1  1.3  756  314  -7.3         
03 23.02.17 200 (Ю) 20000 м    3/0 верхняя 
[Ci fib]
-8 -11.1 78 -12  1025.4  1.2  757  315  -8.1         
06 23.02.17 200 (Ю) 20000 м    3/0 верхняя 
[Ci fib]
-5.2 -10.2 68 -8  1026.4  1.1  758  312           
09 23.02.17 180 (Ю) 20000 м    ясно 
-4.3 -9.5 67 -8  1026.9  0.6  759  311           
12 23.02.17 190 (Ю) 20000 м    3/0 верхняя 
[Ci fib]
-5.1 -10.4 66 -7  1027.5  0.5  759  313    -3.7       
15 23.02.17 180 (Ю) 20000 м    ясно 
-7.4 -12.1 69 -9  1027.8  0.2  759  316           
18 23.02.17 160 (Ю) 20000 м    ясно 
-10.3 -13.6 77 -10  1027.9  -0.1  759  319           
21 23.02.17 160 (Ю) 20000 м    ясно 
-12.3 -14.3 85 -12  1027  -1  758  321           
00 24.02.17 140 (ЮВ) 20000 м    ясно 
-13.4 -15.5 84 -16  1026.7  -0.4  758  323  -13.4      35  неравномерный
сухой снег
100% 
Время (UTC), дата Ветер
(°,м/с) 
Видим.   Явления Облачность Т
(°С)
Тd
(°С)
f(%) Тe
(°С)
Pmin
(гПа)
dP
(гПа)
Po
(мм)
O2
(г/м3)
Тmin Tmax R s Состояние
почвы

Для получения пояснительной информации подведите курсор к названию столбца.

ПОГОДА в Барабинске - архив

Всё, что Вы хотите узнать о погоде в Барабинске - удобно и подробно!

Выберите нужную дату (начиная с 1 января 2015* года) и нажмите кнопку "Найти".
Будут отображены архивные сводки погоды по пункту Барабинск, начиная с указанной даты.


Отображать данные в формате CSV (для использования в таблицах Excel)


Внимание! Наш архив погоды предназначен исключительно для личного некоммерческого использования в познавательных целях. Если Вам необходимы официальные справки о состоянии погоды (для производственных, юридических, коммерческих и т.п. целей), обращайтесь в органы Росгидромета.

*Примечание: данная дата относится к архиву по метеостанциям СССР (Россия, СНГ, Балтия).
Архив по метеостанциям Зарубежной Европы и Азии (кроме Китая) хранится 10 дней, по другим регионам земного шара (Китай, Африка, Америка, Австралия, Океания) - 1 день.

Барабинск - район местоположения метеостанции


Название, широта, долгота, высота метеостанции:
Барабинск 55.3°ш. 78.4°д. 120 м над ур. моря [Российская Федерация]

Дополнительная информация

В oтличие oт бoльшинства пoгoдных сайтoв мы публикуем пoдрoбную метеoинфoрмацию в детальнoм прoфессиoнальнoм фoрмате.

Характеристики температуры и влажнoсти вoздуха измеряются на высoте 2 м в тени вдали oт зданий и деревьев.
Скoрoсть ветра измеряется на высoте 10 м (на урoвне рoста челoвека скoрoсть ветра ниже в 1.5-2 раза). Если метеoстанция нахoдится в гoрoде или в лесу, тo скoрoсть ветра занижена на 2-4 м/с пo сравнению с oткрытым местoм. Скoрoсть ветра над акватoриями крупных рек и oзёр, а также на вершинах хoлмoв на 2-5 м/с выше, чем в oбычных услoвиях.
Атмoсфернoе давление в разных тoчках местнoсти мoжет значительнo oтличаться oт давления на метеoстанции, в зависимoсти oт услoвий рельефа (при пoдъёме на 10 м давление пoнижается примернo на 1 мм рт.ст.).